Volver al catálogo

STARLINK-3083

ActivoComunicacionesVLEO
NORAD 49158·PAYLOAD·🇺🇸 United States

Lanzado Sep 14, 2021 desde Vandenberg Space Force Base

Loading…

Próximos Pases (próximas 24 horas)

TLE

ActualizadoSource: CelesTrak SupGP

Época: Sep 14, 2026, 14:46 UTC

1 49158C 21082AE  26257.61576389  .00392310  00000+0  58823-3 0  2570
2 49158  69.9498 354.4280 0007224 284.4563 271.0840 16.04223451    18

Sigue STARLINK-3083 en tiempo real con AllMySat

Download on the App Store